Zurück zum Katalog

GONETS-M 23

AktivKommunikationPO
NORAD 54150·PAYLOAD·🇷🇺 Russia

Gestartet Oct 22, 2022 von Vostochny Cosmodrome

Loading…

Nächste Überflüge (nächste 24 Stunden)

TLE

AktuellSource: Space-Track

Epoche: Sep 14, 2026, 14:44 UTC

1 54150U 22139A   26257.61421252  .00000015  00000-0  36342-4 0  9995
2 54150  82.5037 292.7283 0021824  29.9085 330.3236 12.42893457176756

Verfolge GONETS-M 23 in Echtzeit mit AllMySat

Download on the App Store